Regional Weather Roundup
Issued by NWS Austin/San Antonio, TX

Home | Current Version | Previous Version | Text Only | Print | Product List | Glossary On
Versions: 1 2 3 4 5 6 7 8 9 10 11 12 13 14 15 16 17 18 19 20 21 22 23 24 25 26 27 28 29 30 31 32 33 34 35 36 37 38 39 40 41 42 43 44 45 46 47 48 49 50
000
ASUS44 KEWX 210602
RWREWX
SOUTH TEXAS REGIONAL WEATHER ROUNDUP
NATIONAL WEATHER SERVICE AUSTIN/SAN ANTONIO TX
100 AM CDT SUN APR 21 2019

NOTE: "FAIR" INDICATED FEW OR NO CLOUDS BELOW 12,000 FEET WITH NO
SIGNIFICANT WEATHER AND/OR OBSTRUCTIONS TO VISIBILITY.

* - THESE STATIONS ARE NOT NWS OR FAA STATIONS...AND ARE NOT SUBJECT
    TO NWS AND FAA QUALITY CONTROL.

TXZ171-172-183>190-210700-
TEXAS HILL COUNTRY AND EDWARDS PLATEAU

CITY           SKY/WX    TMP DP  RH WIND       PRES   REMARKS
JUNCTION       CLEAR     66  52  60 S9G17     29.94F
6HR MIN TEMP:  66; 6HR MAX TEMP:  82;

*LLANO         CLEAR     66  55  68 SE7       29.99S
BURNET         CLEAR     64  54  69 S6        29.99S
6HR MIN TEMP:  64; 6HR MAX TEMP:  81;

*HORSESHOE BAY CLEAR     66  54  66 S12G25    29.97S
6HR MIN TEMP:  66; 6HR MAX TEMP:  81;

*KERRVILLE     CLEAR     61  54  76 SE8       29.99F
6HR MIN TEMP:  61; 6HR MAX TEMP:  79;

*FREDERICKSBRG CLEAR     63  52  67 S6        29.99S
*ROCKSPRINGS     N/A     64  52  63 SE14G20   30.00F
*BOERNE STAGE  CLEAR     61  50  67 S8        30.02S
*CASTROVILLE   CLEAR     64  52  64 SE6       30.00F
HONDO          CLEAR     65  55  70 SE9       29.98F
6HR MIN TEMP:  64; 6HR MAX TEMP:  81;

*UVALDE        CLEAR     61  55  82 E6        29.96F
6HR MIN TEMP:  61; 6HR MAX TEMP:  80;

DEL RIO        CLEAR     71  54  54 E13       29.90R
6HR MIN TEMP:  71; 6HR MAX TEMP:  88;

LAUGHLIN AFB   CLEAR     67  55  64 E12       29.91S
6HR MIN TEMP:  67; 6HR MAX TEMP:  86;

CARRIZO SPRGS  PTCLDY    66  55  68 SE7       29.92F
*FAITH RANCH   CLEAR     72  54  53 SE10G16   29.91F
$$

TXZ173-191>194-202-209-217>225-228-210700-
CENTRAL AND SOUTH CENTRAL TEXAS

CITY           SKY/WX    TMP DP  RH WIND       PRES   REMARKS
GEORGETOWN     CLEAR     66  56  70 S13       29.99S
6HR MIN TEMP:  66; 6HR MAX TEMP:  78;

AUSTIN/BERGSTM CLEAR     63  56  78 S9        29.99S
6HR MIN TEMP:  63; 6HR MAX TEMP:  80;

AUSTIN/MABRY   CLEAR     65  55  70 VRB7      29.99F
6HR MIN TEMP:  65; 6HR MAX TEMP:  78;

*AUSTIN/EXEC   CLEAR     61  57  88 S7        30.00S
*LAGO VISTA    CLEAR     63  56  78 S5        29.99F
6HR MIN TEMP:  63; 6HR MAX TEMP:  78;

SAN MARCOS     PTCLDY    61  56  83 S6        30.01S
6HR MIN TEMP:  61; 6HR MAX TEMP:  79;

NEW BRAUNFELS  CLEAR     60  55  83 S7        29.99F
6HR MIN TEMP:  59; 6HR MAX TEMP:  79;

RANDOLPH AFB   CLEAR     60  55  81 SE8       30.00F
6HR MIN TEMP:  60; 6HR MAX TEMP:  78;

PT SAN ANTONIO CLEAR     63  55  74 SE9       29.97F
6HR MIN TEMP:  63; 6HR MAX TEMP:  80;

SAN ANTONIO    CLEAR     63  53  70 SE8       30.00F
6HR MIN TEMP:  63; 6HR MAX TEMP:  78;

STINSON FIELD  PTCLDY    62  52  69 SE6       29.98F
6HR MIN TEMP:  62; 6HR MAX TEMP:  81; 6HR PCP: TRACE;

*LA GRANGE     CLEAR     62  59  90 S6        29.99F
6HR MIN TEMP:  62; 6HR MAX TEMP:  78;

*GIDDINGS      CLEAR     65  60  82 S7        30.01F HAZE
6HR MIN TEMP:  65; 6HR MAX TEMP:  80;

*GONZALES      CLEAR     62  59  91 S6        30.01S
$$

TXZ163>164-176>182-195>201-210>213-226-227-235-210700-
SOUTHEAST TEXAS

CITY           SKY/WX    TMP DP  RH WIND       PRES   REMARKS
COLLEGE STN    CLEAR     61  54  77 S6        30.01R
6HR MIN TEMP:  61; 6HR MAX TEMP:  76;

*BRYAN         CLEAR     63  53  69 S7        30.02R
*CALDWELL      CLEAR     59  55  86 S7        30.01S
*CROCKETT        N/A     57  50  77 SE3       30.03S
*BRENHAM       CLEAR     62  56  81 S5        30.02S
6HR MIN TEMP:  62; 6HR MAX TEMP:  78;

HUNTSVILLE     CLEAR     60  51  72 S7        30.01R
6HR MIN TEMP:  60; 6HR MAX TEMP:  75;

CONROE         CLEAR     52  52 100 CALM      30.03S
6HR MIN TEMP:  52; 6HR MAX TEMP:  75;

HOUSTON BUSH   CLEAR     58  52  80 S5        30.03S
6HR MIN TEMP:  58; 6HR MAX TEMP:  77;

HOUSTON HOBBY  FAIR      61  52  72 S5        30.02S
6HR MIN TEMP:  60; 6HR MAX TEMP:  76;

*HOUSTON SW AP FAIR      53  52  95 CALM      30.04S
6HR MIN TEMP:  53; 6HR MAX TEMP:  75;

PEARLAND       FAIR      58  54  86 CALM      30.04S
6HR MIN TEMP:  58; 6HR MAX TEMP:  74;

HOUSTON HOOKS  FAIR      60  53  77 S3        30.03R
6HR MIN TEMP:  60; 6HR MAX TEMP:  75;

ELLINGTON FLD  NOT AVBL
SUGAR LAND     FAIR      60  53  77 S5        30.02S
6HR MIN TEMP:  59; 6HR MAX TEMP:  76;

*HOUSTON EXEC  FAIR      57  54  88 S6        30.03S
*CLEVELAND MUN FAIR      54  54 100 CALM      30.04S
6HR MIN TEMP:  54; 6HR MAX TEMP:  75;

*WHARTON       CLEAR     59  54  84 S3        30.03S
6HR MIN TEMP:  57; 6HR MAX TEMP:  76;

*COLUMBUS      FAIR      58  54  85 CALM      30.03S
6HR MIN TEMP:  58; 6HR MAX TEMP:  80;

*EAGLE LAKE    CLEAR     61  56  84 S8        30.02
$$

TXZ214>216-236>238-210700-
THE UPPER TEXAS COAST

CITY           SKY/WX    TMP DP  RH WIND       PRES   REMARKS
*ORANGE        FAIR      53  53 100 CALM      30.05F
6HR MIN TEMP:  53; 6HR MAX TEMP:  70;

PORT ARTHUR    FAIR      54  51  90 SW3       30.03F
6HR MIN TEMP:  54; 6HR MAX TEMP:  70;

GALVESTON      FAIR      66  54  65 S9        30.04S
6HR MIN TEMP:  66; 6HR MAX TEMP:  69;

ANGLETON       FAIR      57  53  86 S5        30.03F
6HR MIN TEMP:  56; 6HR MAX TEMP:  72;

*BAY CITY      CLEAR     59  56  89 S3        30.03S
PALACIOS       CLEAR     69  62  78 S9        30.02S
6HR MIN TEMP:  69; 6HR MAX TEMP:  73;

$$

TXZ229>234-239>247-210700-
TEXAS COASTAL BEND AND RIO GRANDE PLAINS

CITY           SKY/WX    TMP DP  RH WIND       PRES   REMARKS
VICTORIA       CLEAR     60  58  92 S5        30.02S
6HR MIN TEMP:  60; 6HR MAX TEMP:  74;

*BEEVILLE      CLEAR     61  56  85 SE6       29.99F
6HR MIN TEMP:  61; 6HR MAX TEMP:  78;

ROCKPORT       CLEAR     69  62  78 S8        30.01S
6HR MIN TEMP:  69; 6HR MAX TEMP:  72;

*PORT ARANSAS  CLEAR     72  63  73 S14G20    30.02F
6HR MIN TEMP:  71; 6HR MAX TEMP:  73;

*PORT LAVACA   CLEAR     64  61  90 S5        30.02S
6HR MIN TEMP:  64; 6HR MAX TEMP:  75;

*INGLESIDE     CLEAR     69  62  78 S9        30.01S
CORPUS CHRISTI PTCLDY    65  60  84 SE10      29.99F
6HR MIN TEMP:  65; 6HR MAX TEMP:  75;

CORPUS NAS     CLEAR     74  65  73 S14       29.99F
6HR MIN TEMP:  73; 6HR MAX TEMP:  77;

*ROBSTOWN      NOT AVBL
ALICE          CLEAR     59  57  93 SE7       29.98F
6HR MIN TEMP:  59; 6HR MAX TEMP:  76;

KINGSVILLE NAS PTCLDY    67  62  84 SE9       29.98F
6HR MIN TEMP:  67; 6HR MAX TEMP:  76;

COTULLA        PTCLDY    64  55  72 SE12      29.95F
6HR MIN TEMP:  64; 6HR MAX TEMP:  83;

LAREDO         PTCLDY    71  56  58 SE16      29.93F
6HR MIN TEMP:  71; 6HR MAX TEMP:  87;

$$

TXZ248>255-210700-
DEEP SOUTH TEXAS

CITY           SKY/WX    TMP DP  RH WIND       PRES   REMARKS
BROWNSVILLE    FAIR      71  65  81 SE12      30.01S
6HR MIN TEMP:  70; 6HR MAX TEMP:  78;

PORT ISABEL    FAIR      69  62  78 SE12      29.99F
6HR MIN TEMP:  69; 6HR MAX TEMP:  76;

HARLINGEN      CLEAR     66  62  87 SE12      29.98F
6HR MIN TEMP:  66; 6HR MAX TEMP:  78;

*HEBBRONVILLE  PTCLDY    63  54  72 SE9       29.98F
6HR MIN TEMP:  45; 6HR MAX TEMP:  95;

MCALLEN        PTCLDY    69  63  81 SE12      29.97F
6HR MIN T



USA.gov is the U.S. government's official web portal to all federal, state and local government web resources and services.